Year,Month,Day,Hour,Minute,Value (Times are PST for temperature in C)
2021,08,10,00,00,17.70
2021,08,10,00,01,17.70
2021,08,10,00,02,17.70
2021,08,10,00,03,17.70
2021,08,10,00,04,17.60
2021,08,10,00,05,17.60
2021,08,10,00,06,17.60
2021,08,10,00,07,17.50
2021,08,10,00,08,17.50
2021,08,10,00,09,17.50
2021,08,10,00,10,17.50
2021,08,10,00,11,17.40
2021,08,10,00,12,17.40
2021,08,10,00,13,17.40
2021,08,10,00,14,17.40
2021,08,10,00,15,17.40
2021,08,10,00,16,17.40
2021,08,10,00,17,17.40
2021,08,10,00,18,17.40
2021,08,10,00,19,17.40
2021,08,10,00,20,17.40
2021,08,10,00,21,17.40
2021,08,10,00,22,17.40
2021,08,10,00,23,17.40
2021,08,10,00,24,17.40
2021,08,10,00,25,17.40
2021,08,10,00,26,17.40
2021,08,10,00,27,17.40
2021,08,10,00,28,17.40
2021,08,10,00,29,17.40
2021,08,10,00,30,17.40
2021,08,10,00,31,17.40
2021,08,10,00,32,17.40
2021,08,10,00,33,17.40
2021,08,10,00,34,17.40
2021,08,10,00,35,17.40
2021,08,10,00,36,17.40
2021,08,10,00,37,17.40
2021,08,10,00,38,17.40
2021,08,10,00,39,17.40
2021,08,10,00,40,17.40
2021,08,10,00,41,17.30
2021,08,10,00,42,17.30
2021,08,10,00,43,17.30
2021,08,10,00,44,17.30
2021,08,10,00,45,17.30
2021,08,10,00,46,17.30
2021,08,10,00,47,17.30
2021,08,10,00,48,17.30
2021,08,10,00,49,17.30
2021,08,10,00,50,17.30
2021,08,10,00,51,17.30
2021,08,10,00,52,17.30
2021,08,10,00,53,17.20
2021,08,10,00,54,17.20
2021,08,10,00,55,17.20
2021,08,10,00,56,17.20
2021,08,10,00,57,17.20
2021,08,10,00,58,17.20
2021,08,10,00,59,17.20
2021,08,10,01,00,17.20
2021,08,10,01,01,17.20
2021,08,10,01,02,17.20
2021,08,10,01,03,17.20
2021,08,10,01,04,17.20
2021,08,10,01,05,17.20
2021,08,10,01,06,17.10
2021,08,10,01,07,17.10
2021,08,10,01,08,17.10
2021,08,10,01,09,17.10
2021,08,10,01,10,17.10
2021,08,10,01,11,17.10
2021,08,10,01,12,17.10
2021,08,10,01,13,17.10
2021,08,10,01,14,17.00
2021,08,10,01,15,17.00
2021,08,10,01,16,17.00
2021,08,10,01,17,17.00
2021,08,10,01,18,17.00
2021,08,10,01,19,17.00
2021,08,10,01,20,16.90
2021,08,10,01,21,16.90
2021,08,10,01,22,16.90
2021,08,10,01,23,16.90
2021,08,10,01,24,16.90
2021,08,10,01,25,16.90
2021,08,10,01,26,16.90
2021,08,10,01,27,16.80
2021,08,10,01,28,16.80
2021,08,10,01,29,16.80
2021,08,10,01,30,16.80
2021,08,10,01,31,16.80
2021,08,10,01,32,16.80
2021,08,10,01,33,16.80
2021,08,10,01,34,16.70
2021,08,10,01,35,16.70
2021,08,10,01,36,16.70
2021,08,10,01,37,16.70
2021,08,10,01,38,16.70
2021,08,10,01,39,16.70
2021,08,10,01,40,16.70
2021,08,10,01,41,16.70
2021,08,10,01,42,16.70
2021,08,10,01,43,16.70
2021,08,10,01,44,16.70
2021,08,10,01,45,16.70
2021,08,10,01,46,16.70
2021,08,10,01,47,16.70
2021,08,10,01,48,16.70
2021,08,10,01,49,16.70
2021,08,10,01,50,16.60
2021,08,10,01,51,16.60
2021,08,10,01,52,16.60
2021,08,10,01,53,16.60
2021,08,10,01,54,16.60
2021,08,10,01,55,16.60
2021,08,10,01,56,16.60
2021,08,10,01,57,16.60
2021,08,10,01,58,16.60
2021,08,10,01,59,16.60
2021,08,10,02,00,16.60
2021,08,10,02,01,16.60
2021,08,10,02,02,16.50
2021,08,10,02,03,16.60
2021,08,10,02,04,16.60
2021,08,10,02,05,16.60
2021,08,10,02,06,16.60
2021,08,10,02,07,16.60
2021,08,10,02,08,16.60
2021,08,10,02,09,16.60
2021,08,10,02,10,16.60
2021,08,10,02,11,16.60
2021,08,10,02,12,16.60
2021,08,10,02,13,16.60
2021,08,10,02,14,16.60
2021,08,10,02,15,16.60
2021,08,10,02,16,16.60
2021,08,10,02,17,16.60
2021,08,10,02,18,16.60
2021,08,10,02,19,16.60
2021,08,10,02,20,16.50
2021,08,10,02,21,16.50
2021,08,10,02,22,16.50
2021,08,10,02,23,16.50
2021,08,10,02,24,16.50
2021,08,10,02,25,16.60
2021,08,10,02,26,16.50
2021,08,10,02,27,16.50
2021,08,10,02,28,16.50
2021,08,10,02,29,16.50
2021,08,10,02,30,16.50
2021,08,10,02,31,16.50
2021,08,10,02,32,16.60
2021,08,10,02,33,16.60
2021,08,10,02,34,16.60
2021,08,10,02,35,16.60
2021,08,10,02,36,16.60
2021,08,10,02,37,16.60
2021,08,10,02,38,16.60
2021,08,10,02,39,16.60
2021,08,10,02,40,16.60
2021,08,10,02,41,16.60
2021,08,10,02,42,16.60
2021,08,10,02,43,16.60
2021,08,10,02,44,16.60
2021,08,10,02,45,16.60
2021,08,10,02,46,16.60
2021,08,10,02,47,16.60
2021,08,10,02,48,16.60
2021,08,10,02,49,16.60
2021,08,10,02,50,16.60
2021,08,10,02,51,16.60
2021,08,10,02,52,16.60
2021,08,10,02,53,16.60
2021,08,10,02,54,16.60
2021,08,10,02,55,16.60
2021,08,10,02,56,16.60
2021,08,10,02,57,16.60
2021,08,10,02,58,16.60
2021,08,10,02,59,16.60
2021,08,10,03,00,16.50
2021,08,10,03,01,16.50
2021,08,10,03,02,16.50
2021,08,10,03,03,16.50
2021,08,10,03,04,16.50
2021,08,10,03,05,16.40
2021,08,10,03,06,16.40
2021,08,10,03,07,16.40
2021,08,10,03,08,16.40
2021,08,10,03,09,16.40
2021,08,10,03,10,16.40
2021,08,10,03,11,16.40
2021,08,10,03,12,16.40
2021,08,10,03,13,16.40
2021,08,10,03,14,16.40
2021,08,10,03,15,16.40
2021,08,10,03,16,16.40
2021,08,10,03,17,16.40
2021,08,10,03,18,16.40
2021,08,10,03,19,16.40
2021,08,10,03,20,16.40
2021,08,10,03,21,16.40
2021,08,10,03,22,16.30
2021,08,10,03,23,16.30
2021,08,10,03,24,16.30
2021,08,10,03,25,16.30
2021,08,10,03,26,16.30
2021,08,10,03,27,16.30
2021,08,10,03,28,16.30
2021,08,10,03,29,16.20
2021,08,10,03,30,16.20
2021,08,10,03,31,16.20
2021,08,10,03,32,16.20
2021,08,10,03,33,16.20
2021,08,10,03,34,16.10
2021,08,10,03,35,16.10
2021,08,10,03,36,16.10
2021,08,10,03,37,16.10
2021,08,10,03,38,16.10
2021,08,10,03,39,16.10
2021,08,10,03,40,16.10
2021,08,10,03,41,16.10
2021,08,10,03,42,16.10
2021,08,10,03,43,16.10
2021,08,10,03,44,16.20
2021,08,10,03,45,16.20
2021,08,10,03,46,16.20
2021,08,10,03,47,16.20
2021,08,10,03,48,16.20
2021,08,10,03,49,16.20
2021,08,10,03,50,16.20
2021,08,10,03,51,16.20
2021,08,10,03,52,16.20
2021,08,10,03,53,16.20
2021,08,10,03,54,16.20
2021,08,10,03,55,16.20
2021,08,10,03,56,16.20
2021,08,10,03,57,16.20
2021,08,10,03,58,16.20
2021,08,10,03,59,16.20
2021,08,10,04,00,16.20
2021,08,10,04,01,16.20
2021,08,10,04,02,16.20
2021,08,10,04,03,16.20
2021,08,10,04,04,16.20
2021,08,10,04,05,16.20
2021,08,10,04,06,16.20
2021,08,10,04,07,16.20
2021,08,10,04,08,16.20
2021,08,10,04,09,16.20
2021,08,10,04,10,16.20
2021,08,10,04,11,16.20
2021,08,10,04,12,16.20
2021,08,10,04,13,16.20
2021,08,10,04,14,16.30
2021,08,10,04,15,16.30
2021,08,10,04,16,16.30
2021,08,10,04,17,16.30
2021,08,10,04,18,16.30
2021,08,10,04,19,16.30
2021,08,10,04,20,16.30
2021,08,10,04,21,16.30
2021,08,10,04,22,16.30
2021,08,10,04,23,16.30
2021,08,10,04,24,16.20
2021,08,10,04,25,16.20
2021,08,10,04,26,16.20
2021,08,10,04,27,16.30
2021,08,10,04,28,16.30
2021,08,10,04,29,16.30
2021,08,10,04,30,16.30
2021,08,10,04,31,16.30
2021,08,10,04,32,16.30
2021,08,10,04,33,16.30
2021,08,10,04,34,16.30
2021,08,10,04,35,16.30
2021,08,10,04,36,16.30
2021,08,10,04,37,16.30
2021,08,10,04,38,16.30
2021,08,10,04,39,16.30
2021,08,10,04,40,16.30
2021,08,10,04,41,16.30
2021,08,10,04,42,16.30
2021,08,10,04,43,16.30
2021,08,10,04,44,16.30
2021,08,10,04,45,16.30
2021,08,10,04,46,16.30
2021,08,10,04,47,16.30
2021,08,10,04,48,16.30
2021,08,10,04,49,16.30
2021,08,10,04,50,16.30
2021,08,10,04,51,16.30
2021,08,10,04,52,16.20
2021,08,10,04,53,16.20
2021,08,10,04,54,16.20
2021,08,10,04,55,16.20
2021,08,10,04,56,16.20
2021,08,10,04,57,16.20
2021,08,10,04,58,16.20
2021,08,10,04,59,16.20
2021,08,10,05,00,16.20
2021,08,10,05,01,16.20
2021,08,10,05,02,16.20
2021,08,10,05,03,16.10
2021,08,10,05,04,16.10
2021,08,10,05,05,16.10
2021,08,10,05,06,16.10
2021,08,10,05,07,16.10
2021,08,10,05,08,16.10
2021,08,10,05,09,16.10
2021,08,10,05,10,16.10
2021,08,10,05,11,16.10
2021,08,10,05,12,16.10
2021,08,10,05,13,16.10
2021,08,10,05,14,16.10
2021,08,10,05,15,16.10
2021,08,10,05,16,16.10
2021,08,10,05,17,16.10
2021,08,10,05,18,16.10
2021,08,10,05,19,16.10
2021,08,10,05,20,16.10
2021,08,10,05,21,16.00
2021,08,10,05,22,16.00
2021,08,10,05,23,16.00
2021,08,10,05,24,16.00
2021,08,10,05,25,16.00
2021,08,10,05,26,16.00
2021,08,10,05,27,16.00
2021,08,10,05,28,15.90
2021,08,10,05,29,15.90
2021,08,10,05,30,15.90
2021,08,10,05,31,15.90
2021,08,10,05,32,15.90
2021,08,10,05,33,15.90
2021,08,10,05,34,15.90
2021,08,10,05,35,15.90
2021,08,10,05,36,15.90
2021,08,10,05,37,15.90
2021,08,10,05,38,15.90
2021,08,10,05,39,15.90
2021,08,10,05,40,15.80
2021,08,10,05,41,15.80
2021,08,10,05,42,15.80
2021,08,10,05,43,15.80
2021,08,10,05,44,15.80
2021,08,10,05,45,15.80
2021,08,10,05,46,15.80
2021,08,10,05,47,15.80
2021,08,10,05,48,15.80
2021,08,10,05,49,15.70
2021,08,10,05,50,15.70
2021,08,10,05,51,15.70
2021,08,10,05,52,15.70
2021,08,10,05,53,15.70
2021,08,10,05,54,15.70
2021,08,10,05,55,15.70
2021,08,10,05,56,15.70
2021,08,10,05,57,15.70
2021,08,10,05,58,15.70
2021,08,10,05,59,15.70
2021,08,10,06,00,15.70
2021,08,10,06,01,15.70
2021,08,10,06,02,15.70
2021,08,10,06,03,15.70
2021,08,10,06,04,15.70
2021,08,10,06,05,15.70
2021,08,10,06,06,15.70
2021,08,10,06,07,15.70
2021,08,10,06,08,15.80
2021,08,10,06,09,15.80
2021,08,10,06,10,15.80
2021,08,10,06,11,15.80
2021,08,10,06,12,15.80
2021,08,10,06,13,15.80
2021,08,10,06,14,15.80
2021,08,10,06,15,15.80
2021,08,10,06,16,15.80
2021,08,10,06,17,15.80
2021,08,10,06,18,15.80
2021,08,10,06,19,15.80
2021,08,10,06,20,15.80
2021,08,10,06,21,15.80
2021,08,10,06,22,15.80
2021,08,10,06,23,15.80
2021,08,10,06,24,15.80
2021,08,10,06,25,15.80
2021,08,10,06,26,15.80
2021,08,10,06,27,15.80
2021,08,10,06,28,15.80
2021,08,10,06,29,15.80
2021,08,10,06,30,15.80
2021,08,10,06,31,15.80
2021,08,10,06,32,15.80
2021,08,10,06,33,15.80
2021,08,10,06,34,15.80
2021,08,10,06,35,15.80
2021,08,10,06,36,15.80
2021,08,10,06,37,15.80
2021,08,10,06,38,15.80
2021,08,10,06,39,15.80
2021,08,10,06,40,15.90
2021,08,10,06,41,15.90
2021,08,10,06,42,15.90
2021,08,10,06,43,15.90
2021,08,10,06,44,15.90
2021,08,10,06,45,15.90
2021,08,10,06,46,15.90
2021,08,10,06,47,15.90
2021,08,10,06,48,15.90
2021,08,10,06,49,15.90
2021,08,10,06,50,15.90
2021,08,10,06,51,15.90
2021,08,10,06,52,15.90
2021,08,10,06,53,15.90
2021,08,10,06,54,15.90
2021,08,10,06,55,15.90
2021,08,10,06,56,15.90
2021,08,10,06,57,15.90
2021,08,10,06,58,15.90
2021,08,10,06,59,15.90
2021,08,10,07,00,15.90
2021,08,10,07,01,15.90
2021,08,10,07,02,15.90
2021,08,10,07,03,15.90
2021,08,10,07,04,15.90
2021,08,10,07,05,15.90
2021,08,10,07,06,15.90
2021,08,10,07,07,15.90
2021,08,10,07,08,15.90
2021,08,10,07,09,15.90
2021,08,10,07,10,15.90
2021,08,10,07,11,15.90
2021,08,10,07,12,15.90
2021,08,10,07,13,15.90
2021,08,10,07,14,15.90
2021,08,10,07,15,15.90
2021,08,10,07,16,15.90
2021,08,10,07,17,15.90
2021,08,10,07,18,15.90
2021,08,10,07,19,15.90
2021,08,10,07,20,15.90
2021,08,10,07,21,15.90
2021,08,10,07,22,15.90
2021,08,10,07,23,15.90
2021,08,10,07,24,15.90
2021,08,10,07,25,15.90
2021,08,10,07,26,16.00
2021,08,10,07,27,16.00
2021,08,10,07,28,15.90
2021,08,10,07,29,16.00
2021,08,10,07,30,15.90
2021,08,10,07,31,16.00
2021,08,10,07,32,16.00
2021,08,10,07,33,16.00
2021,08,10,07,34,16.00
2021,08,10,07,35,16.00
2021,08,10,07,36,16.00
2021,08,10,07,37,16.00
2021,08,10,07,38,16.10
2021,08,10,07,39,16.10
2021,08,10,07,40,16.10
2021,08,10,07,41,16.10
2021,08,10,07,42,16.10
2021,08,10,07,43,16.10
2021,08,10,07,44,16.10
2021,08,10,07,45,16.20
2021,08,10,07,46,16.20
2021,08,10,07,47,16.20
2021,08,10,07,48,16.20
2021,08,10,07,49,16.20
2021,08,10,07,50,16.20
2021,08,10,07,51,16.20
2021,08,10,07,52,16.20
2021,08,10,07,53,16.20
2021,08,10,07,54,16.20
2021,08,10,07,55,16.30
2021,08,10,07,56,16.30
2021,08,10,07,57,16.30
2021,08,10,07,58,16.30
2021,08,10,07,59,16.30
2021,08,10,08,00,16.40
2021,08,10,08,01,16.40
2021,08,10,08,02,16.40
2021,08,10,08,03,16.40
2021,08,10,08,04,16.40
2021,08,10,08,05,16.50
2021,08,10,08,06,16.50
2021,08,10,08,07,16.50
2021,08,10,08,08,16.60
2021,08,10,08,09,16.60
2021,08,10,08,10,16.60
2021,08,10,08,11,16.70
2021,08,10,08,12,16.70
2021,08,10,08,13,16.70
2021,08,10,08,14,16.80
2021,08,10,08,15,16.80
2021,08,10,08,16,16.90
2021,08,10,08,17,16.90
2021,08,10,08,18,16.90
2021,08,10,08,19,17.00
2021,08,10,08,20,17.00
2021,08,10,08,21,17.10
2021,08,10,08,22,17.10
2021,08,10,08,23,17.10
2021,08,10,08,24,17.20
2021,08,10,08,25,17.20
2021,08,10,08,26,17.30
2021,08,10,08,27,17.30
2021,08,10,08,28,17.30
2021,08,10,08,29,17.30
2021,08,10,08,30,17.30
2021,08,10,08,31,17.30
2021,08,10,08,32,17.40
2021,08,10,08,33,17.40
2021,08,10,08,34,17.40
2021,08,10,08,35,17.40
2021,08,10,08,36,17.50
2021,08,10,08,37,17.50
2021,08,10,08,38,17.50
2021,08,10,08,39,17.50
2021,08,10,08,40,17.50
2021,08,10,08,41,17.60
2021,08,10,08,42,17.60
2021,08,10,08,43,17.60
2021,08,10,08,44,17.60
2021,08,10,08,45,17.60
2021,08,10,08,46,17.60
2021,08,10,08,47,17.60
2021,08,10,08,48,17.70
2021,08,10,08,49,17.70
2021,08,10,08,50,17.70
2021,08,10,08,51,17.70
2021,08,10,08,52,17.80
2021,08,10,08,53,17.80
2021,08,10,08,54,17.80
2021,08,10,08,55,17.90
2021,08,10,08,56,17.90
2021,08,10,08,57,18.00
2021,08,10,08,58,18.00
2021,08,10,08,59,18.10
2021,08,10,09,00,18.10
2021,08,10,09,01,18.10
2021,08,10,09,02,18.10
2021,08,10,09,03,18.10
2021,08,10,09,04,18.20
2021,08,10,09,05,18.20
2021,08,10,09,06,18.20
2021,08,10,09,07,18.20
2021,08,10,09,08,18.30
2021,08,10,09,09,18.30
2021,08,10,09,10,18.30
2021,08,10,09,11,18.40
2021,08,10,09,12,18.40
2021,08,10,09,13,18.50
2021,08,10,09,14,18.50
2021,08,10,09,15,18.60
2021,08,10,09,16,18.70
2021,08,10,09,17,18.70
2021,08,10,09,18,18.70
2021,08,10,09,19,18.70
2021,08,10,09,20,18.80
2021,08,10,09,21,18.80
2021,08,10,09,22,18.90
2021,08,10,09,23,18.90
2021,08,10,09,24,18.90
2021,08,10,09,25,19.00
2021,08,10,09,26,19.00
2021,08,10,09,27,19.00
2021,08,10,09,28,19.10
2021,08,10,09,29,19.10
2021,08,10,09,30,19.10
2021,08,10,09,31,19.10
2021,08,10,09,32,19.20
2021,08,10,09,33,19.30
2021,08,10,09,34,19.30
2021,08,10,09,35,19.30
2021,08,10,09,36,19.40
2021,08,10,09,37,19.40
2021,08,10,09,38,19.40
2021,08,10,09,39,19.40
2021,08,10,09,40,19.40
2021,08,10,09,41,19.40
2021,08,10,09,42,19.40
2021,08,10,09,43,19.40
2021,08,10,09,44,19.40
2021,08,10,09,45,19.40
2021,08,10,09,46,19.50
2021,08,10,09,47,19.60
2021,08,10,09,48,19.60
2021,08,10,09,49,19.70
2021,08,10,09,50,19.70
2021,08,10,09,51,19.70
2021,08,10,09,52,19.70
2021,08,10,09,53,19.70
2021,08,10,09,54,19.70
2021,08,10,09,55,19.70
2021,08,10,09,56,19.70
2021,08,10,09,57,19.80
2021,08,10,09,58,19.80
2021,08,10,09,59,19.80
2021,08,10,10,00,19.80
2021,08,10,10,01,19.80
2021,08,10,10,02,19.80
2021,08,10,10,03,19.80
2021,08,10,10,04,19.80
2021,08,10,10,05,19.90
2021,08,10,10,06,20.00
2021,08,10,10,07,20.10
2021,08,10,10,08,20.10
2021,08,10,10,09,20.20
2021,08,10,10,10,20.20
2021,08,10,10,11,20.20
2021,08,10,10,12,20.20
2021,08,10,10,13,20.20
2021,08,10,10,14,20.30
2021,08,10,10,15,20.30
2021,08,10,10,16,20.30
2021,08,10,10,17,20.40
2021,08,10,10,18,20.40
2021,08,10,10,19,20.50
2021,08,10,10,20,20.50
2021,08,10,10,21,20.50
2021,08,10,10,22,20.60
2021,08,10,10,23,20.60
2021,08,10,10,24,20.60
2021,08,10,10,25,20.70
2021,08,10,10,26,20.60
2021,08,10,10,27,20.60
2021,08,10,10,28,20.60
2021,08,10,10,29,20.60
2021,08,10,10,30,20.60
2021,08,10,10,31,20.60
2021,08,10,10,32,20.50
2021,08,10,10,33,20.40
2021,08,10,10,34,20.40
2021,08,10,10,35,20.40
2021,08,10,10,36,20.40
2021,08,10,10,37,20.40
2021,08,10,10,38,20.40
2021,08,10,10,39,20.50
2021,08,10,10,40,20.50
2021,08,10,10,41,20.50
2021,08,10,10,42,20.60
2021,08,10,10,43,20.60
2021,08,10,10,44,20.60
2021,08,10,10,45,20.60
2021,08,10,10,46,20.60
2021,08,10,10,47,20.60
2021,08,10,10,48,20.60
2021,08,10,10,49,20.60
2021,08,10,10,50,20.70
2021,08,10,10,51,20.70
2021,08,10,10,52,20.70
2021,08,10,10,53,20.70
2021,08,10,10,54,20.80
2021,08,10,10,55,20.80
2021,08,10,10,56,20.90
2021,08,10,10,57,20.90
2021,08,10,10,58,21.00
2021,08,10,10,59,21.00
2021,08,10,11,00,21.10
2021,08,10,11,01,21.20
2021,08,10,11,02,21.20
2021,08,10,11,03,21.20
2021,08,10,11,04,21.20
2021,08,10,11,05,21.10
2021,08,10,11,06,21.10
2021,08,10,11,07,21.10
2021,08,10,11,08,21.20
2021,08,10,11,09,21.20
2021,08,10,11,10,21.30
2021,08,10,11,11,21.20
2021,08,10,11,12,21.20
2021,08,10,11,13,21.20
2021,08,10,11,14,21.20
2021,08,10,11,15,21.20
2021,08,10,11,16,21.20
2021,08,10,11,17,21.20
2021,08,10,11,18,21.30
2021,08,10,11,19,21.30
2021,08,10,11,20,21.30
2021,08,10,11,21,21.40
2021,08,10,11,22,21.50
2021,08,10,11,23,21.60
2021,08,10,11,24,21.60
2021,08,10,11,25,21.70
2021,08,10,11,26,21.70
2021,08,10,11,27,21.70
2021,08,10,11,28,21.80
2021,08,10,11,29,21.90
2021,08,10,11,30,22.00
2021,08,10,11,31,22.10
2021,08,10,11,32,22.20
2021,08,10,11,33,22.30
2021,08,10,11,34,22.40
2021,08,10,11,35,22.50
2021,08,10,11,36,22.50
2021,08,10,11,37,22.50
2021,08,10,11,38,22.50
2021,08,10,11,39,22.50
2021,08,10,11,40,22.60
2021,08,10,11,41,22.60
2021,08,10,11,42,22.60
2021,08,10,11,43,22.70
2021,08,10,11,44,22.70
2021,08,10,11,45,22.70
2021,08,10,11,46,22.70
2021,08,10,11,47,22.70
2021,08,10,11,48,22.70
2021,08,10,11,49,22.70
2021,08,10,11,50,22.70
2021,08,10,11,51,22.70
2021,08,10,11,52,22.80
2021,08,10,11,53,22.90
2021,08,10,11,54,22.90
2021,08,10,11,55,23.00
2021,08,10,11,56,23.10
2021,08,10,11,57,23.00
2021,08,10,11,58,23.00
2021,08,10,11,59,23.00
2021,08,10,12,00,23.00
2021,08,10,12,01,23.00
2021,08,10,12,02,23.00
2021,08,10,12,03,23.10
2021,08,10,12,04,23.10
2021,08,10,12,05,23.20
2021,08,10,12,06,23.30
2021,08,10,12,07,23.30
2021,08,10,12,08,23.30
2021,08,10,12,09,23.40
2021,08,10,12,10,23.40
2021,08,10,12,11,23.40
2021,08,10,12,12,23.50
2021,08,10,12,13,23.40
2021,08,10,12,14,23.40
2021,08,10,12,15,23.40
2021,08,10,12,16,23.40
2021,08,10,12,17,23.50
2021,08,10,12,18,23.60
2021,08,10,12,19,23.60
2021,08,10,12,20,23.60
2021,08,10,12,21,23.70
2021,08,10,12,22,23.70
2021,08,10,12,23,23.70
2021,08,10,12,24,23.70
2021,08,10,12,25,23.80
2021,08,10,12,26,23.80
2021,08,10,12,27,23.90
2021,08,10,12,28,24.00
2021,08,10,12,29,24.00
2021,08,10,12,30,24.10
2021,08,10,12,31,24.10
2021,08,10,12,32,24.00
2021,08,10,12,33,24.00
2021,08,10,12,34,23.90
2021,08,10,12,35,23.80
2021,08,10,12,36,23.80
2021,08,10,12,37,23.90
2021,08,10,12,38,24.00
2021,08,10,12,39,24.00
2021,08,10,12,40,24.20
2021,08,10,12,41,24.30
2021,08,10,12,42,24.30
2021,08,10,12,43,24.30
2021,08,10,12,44,24.30
2021,08,10,12,45,24.30
2021,08,10,12,46,24.40
2021,08,10,12,47,24.40
2021,08,10,12,48,24.30
2021,08,10,12,49,24.30
2021,08,10,12,50,24.30
2021,08,10,12,51,24.30
2021,08,10,12,52,24.40
2021,08,10,12,53,24.40
2021,08,10,12,54,24.40
2021,08,10,12,55,24.40
2021,08,10,12,56,24.50
2021,08,10,12,57,24.50
2021,08,10,12,58,24.50
2021,08,10,12,59,24.60
2021,08,10,13,00,24.70
2021,08,10,13,01,24.80
2021,08,10,13,02,24.90
2021,08,10,13,03,25.00
2021,08,10,13,04,25.10
2021,08,10,13,05,25.20
2021,08,10,13,06,25.20
2021,08,10,13,07,25.20
2021,08,10,13,08,25.20
2021,08,10,13,09,25.30
2021,08,10,13,10,25.30
2021,08,10,13,11,25.40
2021,08,10,13,12,25.50
2021,08,10,13,13,25.60
2021,08,10,13,14,25.60
2021,08,10,13,15,25.70
2021,08,10,13,16,25.70
2021,08,10,13,17,25.70
2021,08,10,13,18,25.70
2021,08,10,13,19,25.80
2021,08,10,13,20,25.90
2021,08,10,13,21,25.90
2021,08,10,13,22,25.80
2021,08,10,13,23,25.80
2021,08,10,13,24,25.70
2021,08,10,13,25,25.70
2021,08,10,13,26,25.70
2021,08,10,13,27,25.70
2021,08,10,13,28,25.70
2021,08,10,13,29,25.80
2021,08,10,13,30,25.80
2021,08,10,13,31,25.80
2021,08,10,13,32,25.70
2021,08,10,13,33,25.70
2021,08,10,13,34,25.70
2021,08,10,13,35,25.60
2021,08,10,13,36,25.70
2021,08,10,13,37,25.70
2021,08,10,13,38,25.80
2021,08,10,13,39,25.90
2021,08,10,13,40,26.00
2021,08,10,13,41,26.00
2021,08,10,13,42,26.10
2021,08,10,13,43,26.20
2021,08,10,13,44,26.20
2021,08,10,13,45,26.30
2021,08,10,13,46,26.20
2021,08,10,13,47,26.20
2021,08,10,13,48,26.20
2021,08,10,13,49,26.20
2021,08,10,13,50,26.20
2021,08,10,13,51,26.20
2021,08,10,13,52,26.20
2021,08,10,13,53,26.20
2021,08,10,13,54,26.30
2021,08,10,13,55,26.40
2021,08,10,13,56,26.50
2021,08,10,13,57,26.60
2021,08,10,13,58,26.70
2021,08,10,13,59,26.70
2021,08,10,14,00,26.70
2021,08,10,14,01,26.60
2021,08,10,14,02,26.50
2021,08,10,14,03,26.50
2021,08,10,14,04,26.40
2021,08,10,14,05,26.30
2021,08,10,14,06,26.30
2021,08,10,14,07,26.30
2021,08,10,14,08,26.20
2021,08,10,14,09,26.10
2021,08,10,14,10,26.10
2021,08,10,14,11,26.00
2021,08,10,14,12,25.90
2021,08,10,14,13,25.90
2021,08,10,14,14,25.90
2021,08,10,14,15,25.90
2021,08,10,14,16,25.90
2021,08,10,14,17,25.80
2021,08,10,14,18,25.80
2021,08,10,14,19,25.70
2021,08,10,14,20,25.70
2021,08,10,14,21,25.70
2021,08,10,14,22,25.70
2021,08,10,14,23,25.70
2021,08,10,14,24,25.70
2021,08,10,14,25,25.70
2021,08,10,14,26,25.70
2021,08,10,14,27,25.80
2021,08,10,14,28,25.80
2021,08,10,14,29,25.80
2021,08,10,14,30,25.90
2021,08,10,14,31,26.10
2021,08,10,14,32,26.10
2021,08,10,14,33,26.10
2021,08,10,14,34,26.10
2021,08,10,14,35,26.10
2021,08,10,14,36,26.10
2021,08,10,14,37,26.10
2021,08,10,14,38,26.20
2021,08,10,14,39,26.30
2021,08,10,14,40,26.40
2021,08,10,14,41,26.50
2021,08,10,14,42,26.60
2021,08,10,14,43,26.70
2021,08,10,14,44,26.80
2021,08,10,14,45,26.80
2021,08,10,14,46,26.80
2021,08,10,14,47,26.80
2021,08,10,14,48,26.80
2021,08,10,14,49,26.80
2021,08,10,14,50,26.80
2021,08,10,14,51,26.80
2021,08,10,14,52,26.80
2021,08,10,14,53,26.80
2021,08,10,14,54,26.70
2021,08,10,14,55,26.70
2021,08,10,14,56,26.60
2021,08,10,14,57,26.60
2021,08,10,14,58,26.60
2021,08,10,14,59,26.50
2021,08,10,15,00,26.60
2021,08,10,15,01,26.60
2021,08,10,15,02,26.70
2021,08,10,15,03,26.80
2021,08,10,15,04,26.80
2021,08,10,15,05,26.80
2021,08,10,15,06,26.80
2021,08,10,15,07,26.90
2021,08,10,15,08,27.00
2021,08,10,15,09,27.10
2021,08,10,15,10,27.10
2021,08,10,15,11,27.10
2021,08,10,15,12,27.20
2021,08,10,15,13,27.20
2021,08,10,15,14,27.10
2021,08,10,15,15,27.10
2021,08,10,15,16,27.10
2021,08,10,15,17,27.10
2021,08,10,15,18,27.20
2021,08,10,15,19,27.30
2021,08,10,15,20,27.40
2021,08,10,15,21,27.50
2021,08,10,15,22,27.60
2021,08,10,15,23,27.70
2021,08,10,15,24,27.70
2021,08,10,15,25,27.70
2021,08,10,15,26,27.70
2021,08,10,15,27,27.80
2021,08,10,15,28,27.80
2021,08,10,15,29,27.80
2021,08,10,15,30,27.80
2021,08,10,15,31,27.80
2021,08,10,15,32,27.80
2021,08,10,15,33,27.70
2021,08,10,15,34,27.60
2021,08,10,15,35,27.50
2021,08,10,15,36,27.40
2021,08,10,15,37,27.30
2021,08,10,15,38,27.30
2021,08,10,15,39,27.30
2021,08,10,15,40,27.40
2021,08,10,15,41,27.30
2021,08,10,15,42,27.30
2021,08,10,15,43,27.20
2021,08,10,15,44,27.20
2021,08,10,15,45,27.20
2021,08,10,15,46,27.20
2021,08,10,15,47,27.30
2021,08,10,15,48,27.30
2021,08,10,15,49,27.30
2021,08,10,15,50,27.30
2021,08,10,15,51,27.20
2021,08,10,15,52,27.20
2021,08,10,15,53,27.10
2021,08,10,15,54,27.00
2021,08,10,15,55,27.00
2021,08,10,15,56,27.10
2021,08,10,15,57,27.10
2021,08,10,15,58,27.10
2021,08,10,15,59,27.10
2021,08,10,16,00,27.10
2021,08,10,16,01,27.20
2021,08,10,16,02,27.20
2021,08,10,16,03,27.30
2021,08,10,16,04,27.40
2021,08,10,16,05,27.50
2021,08,10,16,06,27.60
2021,08,10,16,07,27.70
2021,08,10,16,08,27.80
2021,08,10,16,09,27.80
2021,08,10,16,10,27.80
2021,08,10,16,11,27.80
2021,08,10,16,12,27.90
2021,08,10,16,13,28.00
2021,08,10,16,14,28.10
2021,08,10,16,15,28.10
2021,08,10,16,16,28.10
2021,08,10,16,17,28.10
2021,08,10,16,18,28.00
2021,08,10,16,19,27.90
2021,08,10,16,20,27.80
2021,08,10,16,21,27.80
2021,08,10,16,22,27.70
2021,08,10,16,23,27.70
2021,08,10,16,24,27.70
2021,08,10,16,25,27.70
2021,08,10,16,26,27.70
2021,08,10,16,27,27.80
2021,08,10,16,28,27.80
2021,08,10,16,29,27.80
2021,08,10,16,30,27.90
2021,08,10,16,31,27.90
2021,08,10,16,32,27.90
2021,08,10,16,33,27.90
2021,08,10,16,34,27.90
2021,08,10,16,35,27.90
2021,08,10,16,36,28.00
2021,08,10,16,37,28.00
2021,08,10,16,38,28.10
2021,08,10,16,39,28.10
2021,08,10,16,40,28.20
2021,08,10,16,41,28.30
2021,08,10,16,42,28.40
2021,08,10,16,43,28.40
2021,08,10,16,44,28.50
2021,08,10,16,45,28.50
2021,08,10,16,46,28.30
2021,08,10,16,47,28.20
2021,08,10,16,48,28.10
2021,08,10,16,49,28.00
2021,08,10,16,50,27.90
2021,08,10,16,51,27.90
2021,08,10,16,52,27.80
2021,08,10,16,53,27.70
2021,08,10,16,54,27.70
2021,08,10,16,55,27.70
2021,08,10,16,56,27.60
2021,08,10,16,57,27.60
2021,08,10,16,58,27.50
2021,08,10,16,59,27.50
2021,08,10,17,00,27.40
2021,08,10,17,01,27.40
2021,08,10,17,02,27.50
2021,08,10,17,03,27.60
2021,08,10,17,04,27.70
2021,08,10,17,05,27.70
2021,08,10,17,06,27.80
2021,08,10,17,07,27.80
2021,08,10,17,08,27.90
2021,08,10,17,09,27.90
2021,08,10,17,10,27.90
2021,08,10,17,11,28.00
2021,08,10,17,12,28.00
2021,08,10,17,13,28.00
2021,08,10,17,14,28.00
2021,08,10,17,15,27.90
2021,08,10,17,16,27.90
2021,08,10,17,17,27.90
2021,08,10,17,18,27.90
2021,08,10,17,19,27.90